User: anonymous   Login
Location: Unspecified
(0.0000°N, 0.0000°E)
Time: 22:24:35
(UTC+00:00)
Language:

STARLINK-3825 - Orbit

View from above orbital plane
View from above orbital plane
View from above satellite
View from above satellite

Ground track
Ground track

The orbit is defined by the following mean orbital elements,

1 52478U          26145.53659606 +.00000000 +00000-0 +15836-3 0 00003
2 52478  53.2169  74.1394 0001173  79.0451 281.0673 15.08852334    06
Epoch (UTC): 25 May 2026 12:52:41
Eccentricity: 0.0001173
inclination: 53.2169°
perigee height: 539 km
apogee height: 541 km
right ascension of ascending node: 74.1394°
argument of perigee: 79.0451°
revolutions per day: 15.08852334
mean anomaly at epoch: 281.0673°

The dashed part of the orbit path shows where the satellite is in the earth's shadow,  

DLR